Preview of NWS' New Version of Forecast
This preview is not operational and should not be used for support decisions.

Regional Weather Roundup (RWR)

Issued by National Weather Service (NWS)

                            
000
ASUS44 KJAN 190210
RWRMS 

MISSISSIPPI HOURLY WEATHER ROUNDUP
NATIONAL WEATHER SERVICE JACKSON MS
900 PM CDT WED SEP 18 2019

NOTE: "FAIR: INDICATES FEW OR NO CLOUDS BELOW 12,000 FEET WITH NO
SIGNIFICANT WEATHER AND/OR OBSTRUCTIONS TO VISIBILITY.

MSZ001>002-007>008-010>013-018>021-025>028-034>036-190300-
NORTHWEST MISSISSIPPI
  
CITY           SKY/WX    TMP DP  RH WIND       PRES   REMARKS
BATESVILLE       N/A     75  72  88 CALM      29.96R                  
CLARKSDALE       N/A     81  64  57 CALM      29.96R                  
CLEVELAND      MOCLDY    85  68  56 CALM      29.94S                  
GREENWOOD      FAIR      79  72  79 CALM      29.95R                  
GREENVILLE     FAIR      80  71  74 CALM      29.94R                  
OLIVE BRANCH   PTCLDY    86  68  54 NE5       29.98R                  
OXFORD         FAIR      77  68  73 CALM      29.99R                  
TUNICA           N/A     77  68  73 CALM      29.97R HAZE             
WINONA         FAIR      75  72  90 CALM      29.96S                  
$$

MSZ003>006-009-014>017-022>024-029>033-037>039-190300-
NORTHEAST MISSISSIPPI
  
CITY           SKY/WX    TMP DP  RH WIND       PRES   REMARKS
ABERDEEN       FAIR      73  55  53 CALM      29.98R                  
COLUMBUS AFB   FAIR      78  72  84 CALM      29.96R                  
CORINTH        FAIR      75  72  88 CALM      29.99R                  
GOLDN TRIANGLE FAIR      79  72  79 CALM      29.97R                  
STARKVILLE     FAIR      75  70  83 CALM      29.98R                  
TUPELO         FAIR      84  68  58 CALM      29.97R                  
$$

MSZ040-058-190300-
CENTRAL MISSISSIPPI
  
CITY           SKY/WX    TMP DP  RH WIND       PRES   REMARKS
JACKSON INTL   FAIR      83  68  60 W3        29.96R                  
JACKSON HAWKNS FAIR      82  69  64 W6        29.97R                  
MADISON        FAIR      81  70  69 W7        29.98R                  
MERIDIAN KEY   LGT RAIN  79  71  76 SW6       29.99R                  
MERIDIAN NAS   MOCLDY    81  69  67 S5        29.97R                  
RAYMOND        FAIR      79  73  83 CALM      29.97R                  
VICKSBURG VKS  CLEAR     75  75 100 CALM      29.96S                  
$$

MSZ059>079-190300-
SOUTH MISSISSIPPI
  
CITY           SKY/WX    TMP DP  RH WIND       PRES   REMARKS
BROOKHAVEN     FAIR      77  72  83 CALM      30.00R                  
HATTIESBURG    FAIR      82  71  69 S3        29.97R                  
LAUREL         CLEAR     80  71  76 CALM      29.96S                  
MCCOMB         FAIR      77  71  82 CALM      29.99R                  
NATCHEZ        FAIR      74  72  93 CALM      29.99R                  
PINE BELT        N/A    N/A N/A N/A MISG        N/A                   
$$

MSZ080>082-190300-
COASTAL MISSISSIPPI
  
CITY           SKY/WX    TMP DP  RH WIND       PRES   REMARKS
BILOXI         FAIR      81  73  77 CALM      29.97R                  
PASCAGOULA     FAIR      77  72  84 CALM      29.97R                  
GULFPORT       FAIR      79  73  82 CALM      29.96R                  
$$

LAZ007>009-015>016-023>026-190300-
NORTHEAST LOUISIANA
  
CITY           SKY/WX    TMP DP  RH WIND       PRES   REMARKS
BASTROP        FAIR      77  71  81 CALM      29.96S                  
TALLULAH/VBURG FAIR      79  71  76 CALM      29.96S                  
VIDALIA        FAIR     N/A N/A N/A S3        29.96R                  
$$